Find Starlink 30587

NORAD ID: 58064 Int'l Des: 2023-158 Owner: SPXS Country: US Constellation: starlink operational
LEOCIRCULAR

当前视图

正在加载3D地球...

About Starlink 30587

Starlink 30587 (NORAD 58064) is a starlink constellation satellite (v2 mini) launched Oct 13, 2023 by SPXS of US. It operates in LEO, CIRCULAR orbit with a mass of 730.00 kg.

即将过境

Passes for default location (London). Set your location on the main map for personalized predictions.

高度历史

Loading altitude history...

两行轨道根数

1 58064U 23158P 26234.84026001 .00003901 00000-0 15110-3 0 9994
2 58064 43.0000 168.4513 0001089 276.0217 84.0510 15.27605131158983
Epoch: Aug 22, 2026 • Age: 31 hours

当前状态

高度 491.3 km
远地点 / 近地点 N/A
速度 7.62 km/s
星下点 -32.57°S, 95.88°E
发射日期 Oct 13, 2023
运行时间 2.8 years
类型 internet

技术详情

分类 Payload
质量 730.00 kg
干质量 700.00 kg
总质量 730.00 kg
长度 0.30 m
直径 4.10 m
跨度 29.00 m
形状 Box + pan
制造商 SPXS
平台类型 Starlink V2M
阶段状态 In Orbit
所有者/国家 SPXS/US

Most Searched